Regional Weather Roundup
Issued by NWS

Home | Current Version | Previous Version | Text Only | Print | Product List | Glossary On
Versions: 1 2 3 4 5 6 7 8 9 10 11 12 13 14 15 16 17 18 19 20 21 22 23 24 25 26 27 28 29 30 31 32 33 34 35 36 37 38 39 40 41 42 43 44 45 46 47 48 49 50
000
ASUS43 KDMX 300307
RWRIA

WEATHER ROUNDUP FOR IOWA
NATIONAL WEATHER SERVICE DES MOINES IA
1000 PM CDT FRI MAY 29 2015

NOTE: "FAIR" INDICATES FEW OR NO CLOUDS BELOW 12,000 FEET WITH NO
SIGNIFICANT WEATHER AND/OR OBSTRUCTIONS TO VISIBILITY.

* - THESE STATIONS ARE NOT NWS STATIONS...THUS NOT UNDER NWS
QUALITY CONTROL.  THEY ALSO DO NOT REPORT WEATHER SUCH
AS PRECIPITATION OR FOG.

IAZ001>003-012>014-020>022-031>034-043>046-300400-
   NORTHWEST IOWA

CITY           SKY/WX    TMP DP  RH WIND       PRES   REMARKS
CARROLL *      CLOUDY    59  57  94 N23       30.00R
CHEROKEE *     LGT RAIN  52  50  93 N15G25    30.06R
DENISON *      CLOUDY    55  55 100 N14G25    30.02R
LE MARS *      CLOUDY    52  48  87 N17G25    30.10R
ORANGE CITY *  CLOUDY    48  45  87 N18G32    30.09R
SHELDON *      CLOUDY    50  48  93 N23G30    30.08R
SIOUX CITY     CLOUDY    54  48  80 N17G28    30.10R
SPENCER        CLOUDY    52  48  86 N22G32    30.06R
STORM LAKE *   CLOUDY    52  50  93 N20G30    30.05R
$$

IAZ055>058-069>071-079>083-090>094-300400-
   SOUTHWEST IOWA

CITY           SKY/WX    TMP DP  RH WIND       PRES   REMARKS
ATLANTIC *     HVY RAIN  64  64 100 N16G24    29.98R
AUDUBON *      RAIN      61  57  88 N16G23    30.00R
CLARINDA *     CLEAR     66  66 100 S5        29.95S
COUNCIL BLFS * CLOUDY    61  61 100 NW18      30.01R
CRESTON *      CLEAR     64  64 100 S8        29.96R
HARLAN  *      CLOUDY    61  61 100 N17G23    30.02R
LAMONI         CLOUDY    68  63  84 S6        29.96R
RED OAK *      CLOUDY    66  64  94 N21       29.95R
SHENANDOAH *   CLOUDY    68  64  88 N16G22    29.96R
$$

IAZ047>049-059>061-072>074-084-300400-
   CENTRAL IOWA

CITY           SKY/WX    TMP DP  RH WIND       PRES   REMARKS
AMES           LGT RAIN  67  63  87 NW10      29.93R
ANKENY *       CLEAR     70  64  83 S6        29.92R
CHARITON *       N/A     66  64  94 S7        29.95R
DES MOINES     MOCLDY    70  63  78 S9        29.93R
GRINNELL*      CLOUDY    68  63  83 S9        29.94S
KNOXVILLE *    CLOUDY    66  63  88 S5        29.94R
MARSHALLTOWN   CLOUDY    70  64  81 W10       29.92R
PELLA *        CLOUDY    66  66 100 S5        29.96R
PERRY *        CLOUDY    64  61  88 N17       29.96R
$$

IAZ004>006-015-016-023>025-035-036-300400-
   NORTH CENTRAL IOWA

CITY           SKY/WX    TMP DP  RH WIND       PRES   REMARKS
ALGONA *       CLOUDY    57  55  94 N22G29    29.99R
CLARION *      CLOUDY    61  59  94 NW21      29.95R
ESTHERVILLE    LGT RAIN  52  51  97 N28G35    30.04R
FORT DODGE *   CLOUDY    57  54  88 NW15G21   29.99R
MASON CITY     CLOUDY    63  62  97 NW6       29.95R
FOREST CITY *  HVY RAIN  63  63 100 NW12      29.96R
IOWA FALLS *   MOCLDY    66  63  88 NW9       29.93R
$$

IAZ007>011-017>019-026>030-037>042-050>054-066-300400-
   NORTHEAST IOWA

CITY           SKY/WX    TMP DP  RH WIND       PRES   REMARKS
CEDAR RAPIDS   LGT RAIN  69  64  84 SW10      29.94R
CHARLES CITY * CLOUDY    64  64 100 CALM      29.93R
CLINTON *      CLOUDY    68  64  88 SW7       29.96S
DECORAH *      CLOUDY    66  66 100 CALM      29.91R
DUBUQUE        CLOUDY    69  64  84 SW9       29.93R
MONTICELLO *   CLOUDY    72  66  83 SW9       29.93R
OELWEIN *      CLOUDY    68  66  94 SW5       29.93R
WATERLOO       LGT RAIN  68  65  90 SW6       29.91R
$$

IAZ064-065-067-068-078-300400-
   EAST CENTRAL IOWA

CITY           SKY/WX    TMP DP  RH WIND       PRES   REMARKS
DAVENPORT      CLOUDY    73  65  75 SW8       29.95R
IOWA CITY      CLOUDY    70  63  78 SW8       29.96R
MT. PLEASANT * CLOUDY    68  64  88 CALM      29.98R
MUSCATINE *    CLOUDY    72  64  78 W15       29.97R
QUAD CITIES    CLOUDY    71  67  87 SW5       29.95R
$$

IAZ062-063-075>077-085>089-095>099-300400-
   SOUTHEAST IOWA

CITY           SKY/WX    TMP DP  RH WIND       PRES   REMARKS
BURLINGTON     CLOUDY    70  67  90 SW7       29.97R
FAIRFIELD *    CLOUDY    70  63  78 S6        29.97R
FORT MADISON * CLEAR     70  66  88 S5        29.99R
KEOKUK *       MOCLDY    70  68  94 S5        29.97R
OSKALOOSA *    CLOUDY    66  63  88 S7        29.97R
CENTERVILLE *  CLEAR     66  66 100 S6        29.99R
OTTUMWA        CLOUDY    67  64  90 SW5       29.96R
WASHINGTON *   CLOUDY    70  64  83 SW7       29.98R
$$

ABBREVIATIONS USED IN REMARKS
   TC - TEMPERATURES IN CELSIUS
  WCI - WIND CHILL INDEX
   HX - HEAT INDEX
  VSB - VISIBILITY
$$




USA.gov is the U.S. government's official web portal to all federal, state and local government web resources and services.